User: anonymous   Login
Location: Potawatomi Wildlife Park
(41.2308°N, 86.1050°W)
Time: 12:25:12
(UTC-04:00)
Language:

SL-16 R/B - Orbit

View from above orbital plane
View from above orbital plane
View from above satellite
View from above satellite

Ground track
Ground track

The orbit data is extracted from the following two-line orbital elements,

1 27006U 01056F   15213.89088890 -.00000014  00000-0  31480-4 0  9995
2 27006 099.2135 008.8038 0013795 299.9389 224.6971 13.70961479682595
Epoch (UTC): 01 August 2015 21:22:52
Eccentricity: 0.0013795
inclination: 99.2135°
perigee height: 986 km
apogee height: 1006 km
right ascension of ascending node: 8.8038°
argument of perigee: 299.9389°
revolutions per day: 13.70961479
mean anomaly at epoch: 224.6971°
orbit number at epoch: 68259

The dashed part of the orbit path shows where the satellite is in the earth's shadow,  

DLR